GW5513 Weather Reports


Display with metric or nautical units.
time (UTC)temp
F
wind
direction
speed
MPH
gust
MPH
rain 1hr
in
rain 24hr
in
rain mn
in
humidity
%
barometer
mb
20260504060238 38 271 0.0 0.0 0.00 0.00 0.00 92 1008.0
20260504050737 41 273 0.0 0.0 0.00 0.00 0.00 81 1008.0
20260504050237 42 272 0.0 0.0 0.00 0.00 0.00 82 1008.0
20260504045738 42 271 0.0 0.0 0.00 0.00 0.00 82 1008.0
20260504045238 42 272 0.0 0.0 0.00 0.00 0.00 81 1008.0
20260504044737 42 270 0.0 0.0 0.00 0.00 0.00 80 1008.0
20260504044237 43 271 0.0 0.0 0.00 0.00 0.00 78 1008.0
20260504043737 43 271 0.0 0.0 0.00 0.00 0.00 78 1008.0
20260504043239 43 274 0.0 0.0 0.00 0.00 0.00 77 1008.0
20260504042737 43 273 0.0 0.0 0.00 0.00 0.00 77 1008.0
20260504042238 44 280 0.0 0.0 0.00 0.00 0.00 75 1008.0
20260504041738 44 276 0.0 0.0 0.00 0.00 0.00 76 1008.0
20260504041237 44 270 0.0 0.0 0.00 0.00 0.00 78 1008.0
20260504040737 45 274 0.0 0.0 0.00 0.00 0.00 75 1008.0
20260504040247 45 276 0.0 0.0 0.00 0.00 0.00 74 1008.0
20260504035737 46 274 0.0 0.0 0.00 0.00 0.00 73 1008.0
20260504035238 46 277 0.0 0.0 0.00 0.00 0.00 73 1008.0
20260504034737 47 272 0.0 0.0 0.00 0.00 0.00 72 1008.0
20260504034237 47 272 0.0 0.0 0.00 0.00 0.00 73 1008.0
20260504033739 48 274 0.0 0.0 0.00 0.00 0.00 68 1008.0
20260504033237 48 274 0.0 0.0 0.00 0.00 0.00 68 1008.0
20260504032737 49 275 0.0 0.0 0.00 0.00 0.00 69 1008.0
20260504032237 49 269 0.0 0.0 0.00 0.00 0.00 69 1008.0
20260504031738 50 271 0.0 0.0 0.00 0.00 0.00 69 1008.0
20260504031237 51 270 0.0 0.0 0.00 0.00 0.00 65 1008.0
20260504030737 51 270 0.0 0.0 0.00 0.00 0.00 63 1008.0
20260504030237 52 261 0.0 1.0 0.00 0.00 0.00 62 1008.0
20260504025313 53 273 0.0 0.0 0.00 0.00 0.00 58 1008.0
20260504024739 55 267 0.0 0.0 0.00 0.00 0.00 58 1008.0
20260504024237 56 273 0.0 0.0 0.00 0.00 0.00 55 1008.0
20260504023737 57 279 0.0 0.0 0.00 0.00 0.00 48 1008.0
20260504023237 57 303 2.0 2.0 0.00 0.00 0.00 49 1008.0
20260504022738 58 276 0.0 3.0 0.00 0.00 0.00 46 1008.0
20260504022237 57 318 2.0 2.0 0.00 0.00 0.00 52 1008.0
20260504021738 58 271 0.0 0.0 0.00 0.00 0.00 51 1008.0
20260504021238 59 272 0.0 0.0 0.00 0.00 0.00 50 1008.0
20260504020737 59 225 1.0 1.0 0.00 0.00 0.00 45 1008.0
20260504020237 60 260 0.0 0.0 0.00 0.00 0.00 48 1008.0
20260504015737 60 275 1.0 2.0 0.00 0.00 0.00 44 1008.0
20260504015238 61 286 0.0 1.0 0.00 0.00 0.00 44 1008.0
20260504014737 61 270 5.0 6.0 0.00 0.00 0.00 42 1008.0
20260504014237 62 279 1.0 1.0 0.00 0.00 0.00 43 1008.0
20260504013737 61 318 2.0 2.0 0.00 0.00 0.00 43 1008.0
20260504013237 61 271 1.0 2.0 0.00 0.00 0.00 41 1008.0
20260504012737 62 296 1.0 1.0 0.00 0.00 0.00 43 1008.0
20260504012237 62 280 0.0 1.0 0.00 0.00 0.00 42 1008.0
20260504011737 63 287 1.0 1.0 0.00 0.00 0.00 42 1008.0
20260504011238 63 315 1.0 1.0 0.00 0.00 0.00 40 1008.0
20260504010737 64 310 1.0 1.0 0.00 0.00 0.00 41 1008.0
20260504010237 65 284 0.0 1.0 0.00 0.00 0.00 39 1008.0
20260504005737 65 282 2.0 3.0 0.00 0.00 0.00 39 1008.0
20260504005237 66 307 1.0 1.0 0.00 0.00 0.00 40 1008.0
20260504004737 66 320 2.0 3.0 0.00 0.00 0.00 38 1008.0
20260504004237 67 266 1.0 1.0 0.00 0.00 0.00 38 1008.0
20260504003737 66 345 4.0 5.0 0.00 0.00 0.00 38 1008.0
20260504003238 67 271 0.0 1.0 0.00 0.00 0.00 39 1008.0
20260504002737 68 342 2.0 5.0 0.00 0.00 0.00 38 1008.0
20260504002238 70 261 0.0 1.0 0.00 0.00 0.00 37 1008.0
20260504001737 70 272 0.0 1.0 0.00 0.00 0.00 37 1008.0
20260504001238 71 251 1.0 2.0 0.00 0.00 0.00 37 1008.0
20260504000737 71 280 0.0 0.0 0.00 0.00 0.00 39 1008.0
20260504000238 71 307 0.0 0.0 0.00 0.00 0.00 37 1008.0
20260503235737 71 275 0.0 0.0 0.00 0.00 0.00 39 1008.0
20260503235238 71 258 0.0 0.0 0.00 0.00 0.00 38 1008.0
20260503234737 70 272 0.0 0.0 0.00 0.00 0.00 39 1008.0
20260503234237 68 309 2.0 3.0 0.00 0.00 0.00 41 1008.0
20260503233737 69 333 2.0 2.0 0.00 0.00 0.00 38 1009.0
20260503233238 68 320 3.0 4.0 0.00 0.00 0.00 38 1009.0
20260503232738 70 302 1.0 4.0 0.00 0.00 0.00 37 1009.0
20260503232238 70 289 1.0 2.0 0.00 0.00 0.00 38 1009.0
20260503231738 71 277 1.0 1.0 0.00 0.00 0.00 39 1009.0
20260503231238 72 270 0.0 1.0 0.00 0.00 0.00 35 1009.0
20260503230737 72 337 2.0 2.0 0.00 0.00 0.00 38 1009.0
20260503230237 71 252 1.0 1.0 0.00 0.00 0.00 35 1009.0
20260503225737 71 293 1.0 1.0 0.00 0.00 0.00 38 1009.0
20260503225238 71 247 2.0 3.0 0.00 0.00 0.00 34 1009.0
20260503224739 71 272 1.0 1.0 0.00 0.00 0.00 39 1009.0
20260503224237 71 304 0.0 1.0 0.00 0.00 0.00 36 1009.0
20260503223737 69 274 1.0 3.0 0.00 0.00 0.00 35 1009.0
20260503223237 71 285 2.0 3.0 0.00 0.00 0.00 35 1009.0
20260503222743 71 262 2.0 4.0 0.00 0.00 0.00 36 1009.0
20260503222237 74 282 2.0 2.0 0.00 0.00 0.00 36 1009.0
20260503221737 73 296 1.0 2.0 0.00 0.00 0.00 34 1009.0
20260503221238 71 273 1.0 1.0 0.00 0.00 0.00 35 1009.0
20260503220738 70 173 4.0 4.0 0.00 0.00 0.00 36 1009.0
20260503220237 68 177 3.0 5.0 0.00 0.00 0.00 39 1009.0
20260503215738 68 173 4.0 6.0 0.00 0.00 0.00 37 1009.0
20260503215237 69 235 6.0 7.0 0.00 0.00 0.00 39 1009.0
20260503214738 70 180 0.0 0.0 0.00 0.00 0.00 35 1009.0
20260503214237 70 174 3.0 3.0 0.00 0.00 0.00 35 1009.0
20260503213737 69 200 5.0 10.0 0.00 0.00 0.00 35 1009.0
20260503213238 70 256 2.0 2.0 0.00 0.00 0.00 37 1009.0
20260503212737 69 176 4.0 4.0 0.00 0.00 0.00 39 1009.0
20260503212237 70 353 2.0 2.0 0.00 0.00 0.00 36 1009.0
20260503211737 69 165 4.0 4.0 0.00 0.00 0.00 36 1009.0
20260503211237 70 283 2.0 3.0 0.00 0.00 0.00 37 1009.0
20260503210738 70 180 2.0 2.0 0.00 0.00 0.00 36 1009.0
20260503210237 69 264 2.0 2.0 0.00 0.00 0.00 37 1009.0
20260503205737 70 21 1.0 2.0 0.00 0.00 0.00 38 1009.0
20260503205237 67 349 1.0 2.0 0.00 0.00 0.00 41 1009.0
20260503204737 68 339 1.0 1.0 0.00 0.00 0.00 41 1009.0
20260503204237 68 359 2.0 3.0 0.00 0.00 0.00 40 1009.0
20260503203737 67 201 3.0 3.0 0.00 0.00 0.00 39 1009.0
20260503203238 67 291 1.0 1.0 0.00 0.00 0.00 41 1009.0
20260503202737 65 195 4.0 5.0 0.00 0.00 0.00 40 1009.0
20260503202240 65 223 3.0 4.0 0.00 0.00 0.00 40 1009.0
20260503201737 65 219 5.0 7.0 0.00 0.00 0.00 39 1009.0
20260503201237 65 204 4.0 5.0 0.00 0.00 0.00 40 1009.0
20260503200737 64 174 2.0 3.0 0.00 0.00 0.00 42 1009.0
20260503200237 65 226 5.0 6.0 0.00 0.00 0.00 40 1009.0
20260503195738 68 204 0.0 3.0 0.00 0.00 0.00 40 1009.0
20260503195237 66 238 3.0 3.0 0.00 0.00 0.00 38 1009.0
20260503194737 64 171 3.0 4.0 0.00 0.00 0.00 41 1010.0
20260503194237 64 213 3.0 4.0 0.00 0.00 0.00 43 1010.0
20260503193737 65 242 1.0 1.0 0.00 0.00 0.00 42 1010.0
20260503193237 63 187 5.0 6.0 0.00 0.00 0.00 42 1009.0
20260503192737 65 192 3.0 4.0 0.00 0.00 0.00 42 1009.0
20260503192238 67 240 1.0 1.0 0.00 0.00 0.00 42 1010.0
20260503191737 65 262 2.0 3.0 0.00 0.00 0.00 43 1010.0
20260503191237 64 276 1.0 2.0 0.00 0.00 0.00 45 1009.0
20260503190738 64 271 1.0 1.0 0.00 0.00 0.00 48 1009.0
20260503190238 62 177 4.0 8.0 0.00 0.00 0.00 47 1009.0
20260503185737 62 175 2.0 3.0 0.00 0.00 0.00 47 1010.0
20260503185237 62 180 4.0 7.0 0.00 0.00 0.00 44 1010.0
20260503184737 62 245 3.0 3.0 0.00 0.00 0.00 44 1010.0
20260503184237 64 209 2.0 4.0 0.00 0.00 0.00 43 1010.0
20260503183737 66 325 1.0 1.0 0.00 0.00 0.00 44 1010.0
20260503183237 65 274 1.0 1.0 0.00 0.00 0.00 43 1010.0
20260503182738 64 273 1.0 3.0 0.00 0.00 0.00 44 1010.0
20260503182237 63 319 1.0 3.0 0.00 0.00 0.00 45 1010.0
20260503181737 63 297 1.0 1.0 0.00 0.00 0.00 41 1010.0
20260503181239 64 275 1.0 2.0 0.00 0.00 0.00 44 1010.0
20260503180737 63 286 4.0 4.0 0.00 0.00 0.00 43 1010.0
20260503180237 63 263 2.0 2.0 0.00 0.00 0.00 43 1010.0
20260503175739 63 263 1.0 1.0 0.00 0.00 0.00 44 1010.0
20260503175237 62 282 1.0 1.0 0.00 0.00 0.00 43 1010.0
20260503174737 62 241 1.0 1.0 0.00 0.00 0.00 50 1010.0
20260503174238 60 241 4.0 5.0 0.00 0.00 0.00 48 1010.0
20260503173738 58 184 4.0 5.0 0.00 0.00 0.00 49 1010.0
20260503173238 57 217 3.0 4.0 0.00 0.00 0.00 53 1010.0
20260503172738 57 258 3.0 4.0 0.00 0.00 0.00 54 1010.0
20260503172238 56 175 3.0 3.0 0.00 0.00 0.00 55 1010.0
20260503171738 56 221 2.0 2.0 0.00 0.00 0.00 56 1010.0
20260503171238 56 177 4.0 5.0 0.00 0.00 0.00 57 1010.0
20260503170738 55 206 1.0 2.0 0.00 0.00 0.00 60 1010.0
20260503170237 55 218 1.0 1.0 0.00 0.00 0.00 59 1010.0
20260503150737 40 270 0.0 0.0 0.00 0.00 0.00 87 1011.0
20260503150238 39 265 0.0 0.0 0.00 0.00 0.00 88 1011.0
20260503140238 34 270 0.0 0.0 0.00 0.00 0.00 98 1011.0
20260503131237 30 272 0.0 0.0 0.00 0.00 0.00 99 1011.0
20260503130738 29 271 0.0 0.0 0.00 0.00 0.00 99 1011.0
20260503130238 29 272 0.0 0.0 0.00 0.00 0.00 99 1011.0
20260503110737 31 270 0.0 0.0 0.00 0.00 0.00 99 1011.0
20260503110238 31 273 0.0 0.0 0.00 0.00 0.00 99 1011.0
20260503100237 34 272 0.0 0.0 0.00 0.00 0.00 97 1010.0
20260503090238 35 273 0.0 0.0 0.00 0.00 0.00 91 1011.0
20260503081237 36 270 0.0 0.0 0.00 0.00 0.00 88 1011.0
20260503080737 36 274 0.0 0.0 0.00 0.00 0.00 86 1011.0
20260503080238 36 270 0.0 0.0 0.00 0.00 0.00 87 1011.0
20260503072738 37 270 0.0 0.0 0.00 0.00 0.00 85 1011.0
20260503072238 37 272 0.0 0.0 0.00 0.00 0.00 83 1011.0
20260503071738 36 273 0.0 0.0 0.00 0.00 0.00 84 1011.0
20260503071237 37 270 0.0 0.0 0.00 0.00 0.00 85 1011.0
20260503070738 37 270 0.0 0.0 0.00 0.00 0.00 88 1011.0
20260503070238 37 270 0.0 0.0 0.00 0.00 0.00 87 1011.0